Regional Weather Roundup
Issued by NWS

Home | Current Version | Previous Version | Graphics & Text | Print | Product List | Glossary On
Versions: 1 2 3 4 5 6 7 8 9 10 11 12 13 14 15 16 17 18 19 20 21 22 23 24 25 26 27 28 29 30 31 32 33 34 35 36 37 38 39 40 41 42 43 44 45 46 47 48 49 50
289
ASUS43 KTOP 301859
RWRKS

WEATHER ROUNDUP FOR KANSAS
NATIONAL WEATHER SERVICE GOODLAND KS
200 PM CDT MON MAY 30 2016

NOTE:  "FAIR" INDICATES FEW OR NO CLOUDS BELOW 12,000 FEET WITH NO
SIGNIFICANT WEATHER AND/OR OBSTRUCTIONS TO VISIBILITY.

KSZ001>006-013>018-027>032-041>047-302000-
NORTHWEST KANSAS

CITY           SKY/WX    TMP DP  RH WIND       PRES   REMARKS
GOODLAND       SUNNY     78  55  44 S14       29.94F
HAYS           SUNNY     81  55  41 S20G25    29.95F
HILL CITY      SUNNY     83  54  36 S20G26    29.94F
RUSSELL        SUNNY     79  60  52 S15G24    29.95F
$$

KSZ061>065-074>080-084>089-302000-
SOUTHWEST KANSAS

CITY           SKY/WX    TMP DP  RH WIND       PRES   REMARKS
DODGE CITY     SUNNY     79  53  40 S16G25    29.98F
ELKHART          N/A    N/A N/A N/A MISG        N/A
GARDEN CITY    SUNNY     83  48  29 S18G26    29.95F
GREAT BEND     SUNNY     79  55  44 S20       29.96F
LIBERAL        SUNNY     81  54  39 S14G22    29.99F
$$

KSZ066>073-081>083-090>101-302000-
SOUTHEAST KANSAS

CITY           SKY/WX    TMP DP  RH WIND       PRES   REMARKS
CHANUTE        CLOUDY    75  65  70 S10       30.03F
COFFEYVILLE    CLOUDY    77  66  68 SE10      30.03F
HUTCHINSON     SUNNY     84  58  40 S20       29.98F
MEDICINE LODGE   N/A     82  55  39 S8        29.97F
NEWTON         SUNNY     81  57  44 S16G22      N/A
PARSONS        CLOUDY    72  66  81 CALM      30.05F
WICHITA INTL   MOSUNNY   82  62  50 S13       29.98F
WICHITA JABRA  SUNNY     80  63  55 S14G21    29.99F
WINFIELD       SUNNY     79  63  57 S12       30.00F
$$

KSZ007>012-019>026-033>040-048>060-102>105-302000-
NORTHEAST KANSAS

CITY           SKY/WX    TMP DP  RH WIND       PRES   REMARKS
CONCORDIA      SUNNY     80  58  46 S10       29.96F
EMPORIA        MOSUNNY   82  61  48 S13       29.99F
LAWRENCE       SUNNY     84  66  54 S10       29.98F
MANHATTAN      MOSUNNY   84  62  47 S12       29.95F
OLATHE IND     TSTM      67  60  78 SE15G28   30.05R
OLATHE EXE     LGT RAIN  65  57  75 S18G31    30.03R
SALINA         SUNNY     83  61  47 S9        29.96F
TOPEKA BILLARD   N/A     83  64  52 SE12      29.97F
TOPEKA FORBES  SUNNY     84  67  56 S13       29.98F
$$




USA.gov is the U.S. government's official web portal to all federal, state and local government web resources and services.